This demonstration page uses our WeatherBlox Daily Observations layout. Learn more.

Left ArrowRight Arrow

41.12389, -100.76542

Hourly Observations for December 8, 2017

Temp ( °F °C ) Dew Point ( °F °C ) Humidity (%) Winds ( mph kmh ) Pressure ( in mb ) Visibility ( mi km ) Precip ( " mm )
12:53 am 00:53 Cloudy 29 -1.7 22 -5.6 75 75 NNW 3 6 30.13 1020 10 16 0.00 0.00
1:53 am 01:53 Cloudy 31 -0.6 24 -4.4 76 76 WNW 8 13 30.09 1019 10 16 0.00 0.00
2:53 am 02:53 Mostly Cloudy 34 1.1 24 -4.4 67 67 NW 8 13 30.09 1019 10 16 0.00 0.00
3:53 am 03:53 Cloudy 36 2.2 24 -4.4 62 62 NW 12 19 30.08 1019 10 16 0.00 0.00
4:53 am 04:53 Cloudy 38 3.3 23 -5 55 55 NW 14 22 30.09 1019 10 16 0.00 0.00
5:53 am 05:53 Mostly Clear 35 1.7 22 -5.6 59 59 NW 12 19 30.10 1019 10 16 0.00 0.00
8:53 am 08:53 Sunny 31 -0.6 22 -5.6 69 69 NW 10 17 30.19 1023 10 16 0.00 0.00
9:53 am 09:53 Sunny 36 2.2 22 -5.6 57 57 NNW 16 26 30.20 1023 10 16 0.00 0.00
10:53 am 10:53 Sunny 39 3.9 22 -5.6 50 50 NNW 20 31 30.19 1022 10 16 0.00 0.00
11:53 am 11:53 Sunny 41 5 21 -6.1 45 45 NNW 20 31 30.17 1022 10 16 0.00 0.00
12:53 pm 12:53 Sunny 43 6.1 20 -6.7 40 40 NNW 21 33 30.15 1021 10 16 0.00 0.00
1:53 pm 13:53 Sunny 45 7.2 20 -6.7 37 37 NNW 20 31 30.12 1020 10 16 0.00 0.00
2:53 pm 14:53 Sunny 46 7.8 17 -8.3 31 31 NNW 26 43 30.10 1019 10 16 0.00 0.00
3:53 pm 15:53 Sunny 46 7.8 18 -7.8 32 32 NNW 18 30 30.09 1019 10 16 0.00 0.00
4:53 pm 16:53 Mostly Sunny 44 6.7 20 -6.7 38 38 NNW 14 22 30.09 1019 10 16 0.00 0.00
5:53 pm 17:53 Cloudy 42 5.6 20 -6.7 41 41 NW 7 11 30.09 1019 10 16 0.00 0.00
6:53 pm 18:53 Clear 34 1.1 20 -6.7 56 56 NNW 6 9 30.12 1020 10 16 0.00 0.00
7:53 pm 19:53 Clear 29 -1.7 19 -7.2 66 66 NW 6 9 30.15 1021 10 16 0.00 0.00
8:53 pm 20:53 Clear 30 -1.1 19 -7.2 64 64 NNW 5 7 30.15 1021 10 16 0.00 0.00
9:53 pm 21:53 Mostly Clear 30 -1.1 20 -6.7 66 66 NW 7 11 30.15 1021 10 16 0.00 0.00
10:53 pm 22:53 Mostly Cloudy 29 -1.7 20 -6.7 69 69 NW 8 13 30.17 1022 10 16 0.00 0.00
11:53 pm 23:53 Clear 23 -5 17 -8.3 78 78 NW 10 17 30.19 1023 10 16 0.00 0.00

Powered by AerisWeather